Location: Asheville, NC
(35.6000°N, 82.5500°W)
Time: 01:07:52
(UTC-05:00)

Envisat - Visible Passes

Search period start: 22 January 2018 00:00
Search period end: 01 February 2018 00:00
Orbit: 764 x 766 km, 98.2° (Epoch: 21 January)

Date Brightness Start Highest point End Pass type
(mag) Time Alt. Az. Time Alt. Az. Time Alt. Az.
22 Jan 4.9 19:13:56 13° NNE 19:13:56 13° NNE 19:14:41 10° NNE visible
22 Jan 5.7 20:54:07 11° NNW 20:54:07 11° NNW 20:54:18 10° NNW visible
23 Jan 5.0 20:16:42 18° NNW 20:16:42 18° NNW 20:17:55 10° NNW visible
24 Jan 4.6 19:39:17 20° NNE 19:39:17 20° NNE 19:40:55 10° N visible
25 Jan 4.7 19:01:50 14° NE 19:01:50 14° NE 19:03:06 10° NNE visible
25 Jan 5.2 20:42:02 18° NNW 20:42:02 18° NNW 20:43:21 10° NNW visible
26 Jan 4.4 20:04:35 26° N 20:04:35 26° N 20:06:46 10° N visible
27 Jan 4.2 19:27:07 23° NNE 19:27:07 23° NNE 19:29:35 10° N visible
27 Jan 5.5 21:07:18 15° NW 21:07:18 15° NW 21:08:21 10° NW visible
28 Jan 4.7 18:49:40 13° NE 18:49:40 13° NE 18:51:19 10° NE visible
28 Jan 4.5 20:29:51 29° NNW 20:29:51 29° NNW 20:32:19 10° NNW visible
29 Jan 3.7 19:52:23 36° NNE 19:52:23 36° NNE 19:55:34 10° N visible
29 Jan 6.0 21:32:33 10° WNW 21:32:33 10° WNW 21:32:35 10° WNW visible
30 Jan 4.1 19:14:53 23° NE 19:14:53 23° NE 19:18:10 10° NNE visible
30 Jan 5.0 20:55:04 24° NW 20:55:04 24° NW 20:57:32 10° NNW visible
31 Jan 4.8 18:37:25 10° ENE 18:37:52 11° ENE 18:38:51 10° NE visible
31 Jan 3.6 20:17:35 48° NNW 20:17:35 48° NNW 20:21:15 10° NNW visible
